AO-07 1 07530U 74089B 16140.58062554 -.00000048 00000-0 -28004-4 0 9992 2 07530 101.5720 112.0362 0012176 8.8107 106.4316 12.53621284899538 FO-29 1 24278U 96046B 16140.70096300 -.00000053 00000-0 -14301-4 0 9998 2 24278 98.5853 69.6405 0349299 276.4155 79.7327 13.53067533975663 RS-22 1 27939U 03042A 16140.74346205 .00000317 00000-0 65650-4 0 9999 2 27939 97.8845 293.5215 0014009 40.3458 319.8792 14.66397898675657 HO-68 1 36122U 09072B 16140.70837182 -.00000059 00000-0 -43517-4 0 9990 2 36122 100.1459 177.7155 0008133 64.6463 295.5489 13.16333961308866 AO-73 1 39444U 13066AE 16140.71797370 .00000904 00000-0 11952-3 0 9997 2 39444 97.6834 195.3787 0060467 113.5089 247.2493 14.81036129133365 EO-79 1 40025U 14033R 16140.68140599 .00000761 00000-0 88977-4 0 9993 2 40025 97.9308 46.1469 0013221 151.8235 208.3699 14.87984786103961 XW-2A 1 40903U 15049E 16140.91134882 .00005015 00000-0 14399-3 0 9993 2 40903 97.4466 155.7224 0014420 232.5176 170.8116 15.36226630 37218 XW-2C 1 40906U 15049H 16140.89666821 .00002474 00000-0 14132-3 0 9997 2 40906 97.4533 148.5844 0017054 130.7660 345.6141 15.13514628 36724 LILACSAT-2 1 40908U 15049K 16140.75675480 .00001656 00000-0 98470-4 0 9994 2 40908 97.4601 148.3670 0017871 125.8557 354.0703 15.12498282 36683 XW-2E 1 40909U 15049L 16140.72973464 .00003149 00000-0 17442-3 0 9993 2 40909 97.4528 148.6385 0016091 133.3127 315.4903 15.14430897 36715 UO-11 1 14781U 84021B 16139.74598764 .00000293 00000-0 42581-4 0 9994 2 14781 97.7520 192.6463 0009740 57.4284 302.7869 14.82739293731895 LO-19 1 20442U 90005G 16140.71349357 .00000028 00000-0 26236-4 0 9990 2 20442 98.5424 76.0535 0010828 226.8490 133.1789 14.32815565375278 AO-27 1 22825U 93061C 16140.74637775 .00000022 00000-0 26107-4 0 9990 2 22825 98.7569 96.8210 0009263 46.3819 313.8129 14.29954875181171 IO-26 1 22826U 93061D 16140.30756327 .00000026 00000-0 27222-4 0 9991 2 22826 98.7512 96.5070 0009692 39.2139 320.9743 14.30279161181275 GO-32 1 25397U 98043D 16139.83201332 .00000000 00000-0 19001-4 0 9997 2 25397 98.5650 85.5390 0002428 76.9786 283.1664 14.23593861927684 NO-44 1 26931U 01043C 16140.32055899 .00000037 00000-0 45874-4 0 9994 2 26931 67.0527 27.3826 0007086 262.9280 97.1015 14.30406980764014 SO-50 1 27607U 02058C 16140.55657907 .00000539 00000-0 76243-4 0 9996 2 27607 64.5563 248.3194 0070982 222.9948 136.6081 14.75151410721044 CO-55 1 27844U 03031E 16140.60301578 .00000129 00000-0 78412-4 0 9992 2 27844 98.6926 149.2996 0010632 50.8276 309.3845 14.21947617668382 CO-57 1 27848U 03031J 16140.56820167 .00000110 00000-0 69905-4 0 9998 2 27848 98.7023 149.3434 0010682 58.2629 301.9587 14.21574290668274 CO-65 1 32785U 08021C 16140.71555902 .00000679 00000-0 80466-4 0 9992 2 32785 97.6051 176.1127 0014108 37.1549 323.0641 14.87545722436392 PRISM 1 33493U 09002B 16140.75747999 .00001683 00000-0 16004-3 0 9994 2 33493 98.2209 359.5088 0014568 303.8727 56.1121 14.94878663396983 TISAT-1 1 36799U 10035E 16140.84330676 .00001274 00000-0 13880-3 0 9999 2 36799 98.0276 250.6889 0012858 172.6208 187.5201 14.89772395317208 ALMASAT-1 1 38078U 12006B 16139.95548076 .00024651 34815-5 34821-3 0 9994 2 38078 069.4462 097.4223 0389393 144.2298 218.5512 15.01411442225197 DUCHIFAT-1 1 40021U 14033M 16140.72862153 .00001096 00000-0 12157-3 0 9999 2 40021 97.9338 47.2036 0013822 150.2917 209.9087 14.89263602104024 NANOSATCBR1 1 40024U 14033Q 16140.69824443 .00001008 00000-0 11397-3 0 9996 2 40024 97.9312 46.6079 0013069 150.2710 209.9252 14.88678864103991 DTUSAT-2 1 40030U 14033W 16140.72306080 .00000761 00000-0 89763-4 0 9997 2 40030 97.9287 45.6644 0012822 145.4570 214.7482 14.87617002103942 ANTELSAT 1 40034U 14033AA 16140.84304983 .00000584 00000-0 95352-4 0 9998 2 40034 97.9075 29.8718 0060431 115.8469 244.8987 14.73364275103001 MET-2/21 1 22782U 93055A 16140.11423515 .00000045 00000-0 26868-4 0 9990 2 22782 82.5480 336.3079 0023790 95.9012 38.3875 13.83787993147192 NOAA-15 1 25338U 98030A 16140.51940715 .00000099 00000-0 60717-4 0 9998 2 25338 98.7829 144.6115 0009415 269.2960 90.7141 14.25725715936909 NOAA-18 1 28654U 05018A 16140.51162207 .00000064 00000-0 60260-4 0 9993 2 28654 99.1973 146.6973 0015439 95.2242 265.0691 14.12284812566680 NOAA-19 1 33591U 09005A 16140.46140070 .00000116 00000-0 88129-4 0 9999 2 33591 99.0377 97.0025 0013104 302.9641 57.0270 14.12073305375085 HUBBLE 1 20580U 90037B 16140.26660598 .00001002 00000-0 51643-4 0 9994 2 20580 28.4698 89.6995 0002567 255.2252 249.9884 15.08358090230742 ISS 1 25544U 98067A 16141.06379093 .00005466 00000-0 88064-4 0 9991 2 25544 51.6430 198.3271 0001800 114.9557 324.4495 15.54657875 614 CO-58 1 28895U 05043F 16139.75876642 .00000390 00000-0 84414-4 0 9996 2 28895 97.8309 315.1791 0015853 315.5537 44.4393 14.63186636562800 CAPE1 1 31130U 07012P 16139.84876556 .00000449 00000-0 10650-3 0 9999 2 31130 098.0305 096.3950 0096501 348.3052 011.5905 14.55918896481878 AAUSAT2 1 32788U 08021F 16140.09332114 .00001377 00000-0 13704-3 0 9990 2 32788 97.6061 183.9220 0012452 15.5003 344.6596 14.93165707436858 DO-64 1 32789U 08021G 16140.10625596 .00003908 00000-0 29363-3 0 9992 2 32789 97.6095 199.8393 0012953 6.9893 353.1510 15.03106788437634 CO-66 1 32791U 08021J 16140.64325023 .00001028 00000-0 11273-3 0 9998 2 32791 97.6059 179.1083 0014214 27.4170 332.7795 14.89735513436546 RS-30 1 32953U 08025A 16140.87257377 .00000010 00000-0 -13620-7 0 9996 2 32953 82.4998 124.2603 0020471 64.7768 295.5427 12.43069338362569 JUGNU 1 37839U 11058B 16139.62078391 .00000344 00000-0 41592-4 0 9997 2 37839 19.9623 322.8310 0018891 154.2166 281.5763 14.12540164237847 SRMSAT 1 37841U 11058D 16139.98360323 .00000343 00000-0 43839-4 0 9993 2 37841 19.9733 354.2153 0011900 71.6238 73.4883 14.10539460237567 AO-71 1 37854U 11061E 16139.79506322 .00003339 00000-0 19172-3 0 9991 2 37854 101.7063 167.5630 0174198 160.4068 200.3947 15.02004737247681 HRBE 1 37855U 11061F 16139.85982948 .00003208 00000-0 18093-3 0 9997 2 37855 101.7202 165.7534 0187752 164.2417 196.4746 15.00920292247593 HORYU-2 1 38340U 12025D 16139.93458056 .00000677 00000-0 10872-3 0 9999 2 38340 098.3533 124.5529 0013080 103.7795 256.4869 14.75006061204751 RS-40 1 38735U 12041C 16140.88285719 .00000040 00000-0 21992-3 0 9994 2 38735 82.4783 209.4105 0017412 161.2011 198.9711 12.42572786172851 BEESAT-3 1 39134U 13015E 16140.74755134 .00003491 00000-0 19162-3 0 9997 2 39134 64.8727 54.4316 0008604 272.7684 87.2456 15.15823184169807 BEESAT-2 1 39136U 13015G 16140.64575544 .00004048 00000-0 22443-3 0 9998 2 39136 64.8727 60.4655 0007826 267.8218 92.2515 15.13521522169682 ZACUBE-1 1 39417U 13066B 16140.07915773 .00000788 00000-0 10667-3 0 9997 2 39417 97.6823 194.1915 0061181 117.3721 243.3736 14.80371988134465 TRITON-1 1 39427U 13066M 16139.83182472 .00000526 00000-0 92629-4 0 9991 2 39427 97.6696 175.0041 0115165 170.5079 189.8341 14.67167390133214 GOMX-1 1 39430U 13066Q 16140.71681251 .00000473 00000-0 95682-4 0 9996 2 39430 97.6710 163.8266 0151768 204.8783 154.5045 14.58575796132572 LO-74 1 39440U 13066AA 16139.71236115 .00000707 00000-0 10634-3 0 9993 2 39440 97.6762 186.2985 0082352 138.3906 222.3610 14.75133999133934 SPROUT 1 39770U 14029E 16140.06129676 .00001903 00000-0 22747-3 0 9999 2 39770 97.8699 237.6226 0010242 169.1883 190.9498 14.85323975107611 EO-80 1 40032U 14033Y 16140.68061759 .00000785 00000-0 92501-4 0 9995 2 40032 97.9294 45.6318 0012753 145.8459 214.3580 14.87550228103933 VELOX-1 1 40057U 14034E 16140.80824211 .00000799 00000-0 12186-3 0 9992 2 40057 98.1931 229.1829 0009921 233.5010 126.5289 14.76678476101693 DAURIA DX 1 1 40071U 14037C 16140.89481644 .00000379 00000-0 56630-4 0 9996 2 40071 98.3302 230.7114 0007396 230.0968 129.9597 14.80804784100760 UKUBE-1 1 40074U 14037F 16140.87417519 .00000851 00000-0 11175-3 0 9996 2 40074 98.3340 232.7052 0003560 225.5855 134.5052 14.83046300100876 HODOYOSHI-1 1 40299U 14070B 16140.78713473 .00002140 00000-0 98705-4 0 9998 2 40299 97.4298 223.0384 0014617 37.8257 76.6187 15.21250704 85115 CHUBUSAT-1 1 40300U 14070C 16140.77337612 .00002349 00000-0 11241-3 0 9997 2 40300 97.4256 221.3354 0022285 42.1551 74.7708 15.19752728 85013 QSAT-EOS 1 40301U 14070D 16140.87667122 .00004987 00000-0 22565-3 0 9992 2 40301 97.4201 220.7391 0030465 40.0026 51.5540 15.20945597 85007 FIREBIRD FU3 1 40377U 15003B 16140.75181220 .00005544 00000-0 25366-3 0 9991 2 40377 99.0843 242.1914 0144242 223.3506 135.6301 15.12226389 71485 FIREBIRD FU4 1 40378U 15003C 16140.74836991 .00005389 00000-0 24648-3 0 9992 2 40378 99.0844 242.2005 0144457 223.2866 135.6938 15.12234199 71489 GRIFEX 1 40379U 15003D 16140.85036187 .00003531 00000-0 16975-3 0 9995 2 40379 99.0849 241.5637 0148173 226.3404 132.5460 15.10543044 71452 NO-84 1 40654U 15025D 16139.40012863 .00013245 00000-0 28856-3 0 01221 2 40654 055.0006 189.9661 0210644 000.1718 359.9275 15.24560601019494 NO-83 1 40655U 15025E 16139.40466898 .00019444 00000-0 38897-3 0 01383 2 40655 054.9867 184.5691 0194361 002.0157 358.1624 15.29045297019546 DEORBITSAIL 1 40719U 15032E 16140.67218282 .00001087 00000-0 16694-3 0 9995 2 40719 98.0206 32.5500 0016202 333.7490 26.2897 14.75505039 46286 NUDT-PHONESAT 1 40900U 15049B 16140.81831109 .00005887 00000-0 30346-3 0 9992 2 40900 97.4449 149.0517 0015987 148.7542 335.6355 15.16637958 36774 XW-2D 1 40907U 15049J 16140.83365919 .00002610 00000-0 14876-3 0 9993 2 40907 97.4498 148.4113 0016486 129.4686 353.2682 15.13550391 36715 XW-2F 1 40910U 15049M 16140.80994389 .00003317 00000-0 18584-3 0 9998 2 40910 97.4532 148.5449 0017597 128.7226 355.9622 15.13967001 36608 XW-2B 1 40911U 15049N 16140.88863572 .00002586 00000-0 14752-3 0 9996 2 40911 97.4547 148.6203 0016314 129.2729 297.2008 15.13535638 36629 DCBB 1 40912U 15049P 16140.84687593 .00003597 00000-0 19061-3 0 9991 2 40912 97.4536 149.2685 0018028 125.4103 357.6715 15.15893820 36669 TW-1C 1 40926U 15051B 16140.73474843 .00012659 00000-0 36194-3 0 9994 2 40926 97.2780 177.9674 0015820 145.1086 308.7509 15.35986365 36392 TW-1A 1 40928U 15051D 16140.89045199 .00006216 00000-0 19661-3 0 9993 2 40928 97.2728 177.4421 0014766 160.5120 323.7841 15.33032576 36388 IO-86 1 40931U 15052B 16140.64058565 .00000752 00000-0 15756-4 0 9993 2 40931 5.9985 158.7046 0013505 73.1880 286.9650 14.76459265 34706 GomX-3 1 40949U 98067HA 16140.55751156 .00060677 00000-0 37510-3 0 9998 2 40949 51.6317 182.2786 0003969 74.8953 285.2486 15.76499033 35547 LQSat 1 40958U 15057A 16140.71036239 .00000181 00000-0 36086-4 0 9994 2 40958 98.0150 215.9778 0016814 243.7820 116.1662 14.72862121 33199 AO-85 1 40967U 15058D 16139.49365719 .00000581 00000-0 79331-4 0 01341 2 40967 064.7785 335.8765 0207267 214.7336 144.0093 14.74977979018893 ATHENOXAT-1 1 41168U 15077C 16140.35599800 .00004233 00000-0 21383-3 0 9993 2 41168 14.9841 162.8580 0012795 323.9086 52.5965 15.09839075 23390 ChubuSat-2 1 41338U 16012B 16139.96130018 .00000845 00000-0 60537-4 0 9999 2 41338 031.0022 095.3441 0013929 117.7730 242.4329 14.99363030013766 ChubuSat-3 1 41339U 16012C 16140.21311657 .00000851 00000-0 60660-4 0 9994 2 41339 31.0095 93.5584 0013710 127.0269 233.1644 14.99594899 13771 Horyu-4 1 41340U 16012D 16139.92626663 .00001274 00000-0 93225-4 0 9991 2 41340 031.0044 095.0531 0014246 128.1342 232.0596 14.99982007013759 OUFTI-1 1 41458U 16025C 16140.55120754 .00003160 00000-0 18129-3 0 9991 2 41458 98.2193 149.4010 0178568 162.8118 197.9294 15.00857455 3483 e-st@r-II 1 41459U 16025D 16140.55095687 .00003520 00000-0 20215-3 0 9997 2 41459 98.2154 149.3997 0177442 162.7725 197.9621 15.00871174 3485 AAUSAT4 1 41460U 16025E 16140.81716832 .00004848 00000-0 27579-3 0 9994 2 41460 98.2149 149.6834 0177599 161.8891 198.8771 15.00939674 3522 SAMSat-1 1 41476U 98067HW 16140.62024398 .00030789 00000-0 44717-3 0 9991 2 41476 51.6416 200.5217 0003486 15.4669 108.4581 15.55519828 394 /EX
